Flag for Germany Weather past 2 weeks in Jena, Thuringia, Germany

Now
68 °F

Clear.


Feels Like: 68 °F
Forecast: 66 / 78 °F
Wind: 7 mph from South

Location: Erfurt-Bindersleben

Current Time: Jul 5, 2015 at 3:21:46 AM

Latest Report: Jul 5, 2015 at 2:50 AM


Visibility: 10 mi

Pressure: 30.09 "Hg

Humidity: 83%

Dew point: 63 °F

Location of JenaLocation

Historic Weather in Jena — Graph

°F

Jena temperature yesterday

Maximum temperature yesterday: 97 °F (at 3:20 PM)
Minimum temperature yesterday: 68 °F (at 3:20 AM)
Average temperature yesterday: 84 °F

Past Weeks' High & Low Weather Summary

 TemperatureHumidityPressure
High97 °F (Jul 4, 3:20 PM)100% (Jun 23, 1:20 AM)30.30 "Hg (Jun 23, 1:20 AM)
Low43 °F (Jun 21, 3:20 AM)22% (Jul 4, 4:50 PM)29.65 "Hg (Jun 23, 12:50 AM)
Average65 °F66%30.10 "Hg
* Reported Jun 20 2:20 AM — Jul 5 2:20 AM, Jena, Weather by CustomWeather, © 2015

Note: Actual official high and low records may vary slightly from our data, if they occured in-between our weather recording intervals... More about our weather records

Advertising

Jena weather history for previous 24 hours

 ConditionsComfort  
Time TempWeatherWind HumidityBarometerVisibility
2:20 AM
Sun, Jul 5
72 °FClear.5 mph73%30.12 "Hg10 mi
1:50 AM73 °FClear.3 mph69%30.12 "Hg10 mi
1:20 AM75 °FClear.7 mph61%30.12 "Hg10 mi
12:50 AM75 °FThundershowers. Partly cloudy.6 mph57%30.12 "HgN/A
12:20 AM73 °FThundershowers. Passing clouds.13 mph69%30.12 "HgN/A
11:50 PM
Sat, Jul 4
72 °FThunderstorms. Passing clouds.8 mph73%30.15 "HgN/A
11:20 PM79 °FThunderstorms. Partly cloudy.9 mph58%30.15 "Hg2 mi
10:50 PM81 °FThunderstorms. Passing clouds.16 mph42%30.09 "HgN/A
10:20 PM82 °FThunderstorms. Partly sunny.13 mph48%30.09 "HgN/A
9:50 PM88 °FBroken clouds.5 mph33%30.09 "HgN/A
9:20 PM90 °FBroken clouds.5 mph31%30.09 "HgN/A
8:50 PM90 °FPartly sunny.5 mph31%30.07 "HgN/A
8:20 PM90 °FPartly sunny.6 mph31%30.09 "HgN/A
7:50 PM90 °FPartly sunny.6 mph36%30.09 "HgN/A
7:20 PM91 °FPartly sunny.6 mph34%30.09 "HgN/A
6:50 PM95 °FSunny.7 mph28%30.09 "Hg10 mi
6:20 PM97 °FPassing clouds.5 mph22%30.09 "HgN/A
5:50 PM97 °FSunny.6 mph22%30.09 "Hg10 mi
5:20 PM97 °FPassing clouds.6 mph22%30.09 "HgN/A
4:50 PM97 °FPassing clouds.5 mph22%30.09 "HgN/A
4:20 PM97 °FPassing clouds.6 mph25%30.09 "HgN/A
3:50 PM97 °FPassing clouds.5 mph23%30.12 "HgN/A
3:20 PM97 °FSunny.6 mph25%30.12 "Hg10 mi
2:50 PM95 °FSunny.3 mph23%30.12 "Hg10 mi
2:20 PM95 °FPassing clouds.7 mph25%30.12 "HgN/A
1:50 PM95 °FSunny.7 mph25%30.12 "Hg10 mi
1:20 PM95 °FPassing clouds.5 mph25%30.15 "HgN/A
12:50 PM93 °FSunny.6 mph26%30.15 "Hg10 mi
12:20 PM93 °FSunny.8 mph28%30.15 "Hg10 mi
11:50 AM91 °FSunny.7 mph30%30.15 "Hg10 mi
11:20 AM91 °FPassing clouds.5 mph34%30.15 "HgN/A
10:50 AM90 °FPassing clouds.5 mph38%30.18 "HgN/A
10:20 AM88 °FSunny.3 mph43%30.18 "Hg10 mi
9:50 AM86 °FSunny.5 mph43%30.18 "Hg10 mi
9:20 AM84 °FSunny.5 mph48%30.18 "Hg10 mi
8:50 AM82 °FSunny.5 mph51%30.18 "Hg10 mi
8:20 AM81 °FSunny.6 mph54%30.18 "Hg10 mi
7:50 AM77 °FSunny.7 mph61%30.18 "Hg10 mi
7:20 AM75 °FSunny.6 mph65%30.18 "Hg10 mi
6:50 AM73 °FSunny.6 mph65%30.18 "Hg10 mi
6:20 AM73 °FSunny.3 mph69%30.18 "Hg10 mi
5:50 AM72 °FClear.5 mph73%30.18 "Hg10 mi
5:20 AM68 °FClear.5 mph83%30.18 "Hg10 mi
4:50 AM68 °FClear.2 mph83%30.18 "Hg10 mi
4:20 AM68 °FClear.5 mph83%30.18 "Hg10 mi
3:50 AM68 °FClear.3 mph83%30.18 "Hg10 mi
3:20 AM68 °FClear.3 mph88%30.21 "Hg10 mi
Weather by CustomWeather, © 2015

See weather overviewHow to use our weather pages